Year,Month,Day,Hour,Minute,Value (Times are PST for temperature in C)
2017,09,03,00,00,20.50
2017,09,03,00,01,20.40
2017,09,03,00,02,20.40
2017,09,03,00,03,20.40
2017,09,03,00,04,20.30
2017,09,03,00,05,20.30
2017,09,03,00,06,20.30
2017,09,03,00,07,20.30
2017,09,03,00,08,20.30
2017,09,03,00,09,20.30
2017,09,03,00,10,20.20
2017,09,03,00,11,20.20
2017,09,03,00,12,20.20
2017,09,03,00,13,20.20
2017,09,03,00,14,20.20
2017,09,03,00,15,20.20
2017,09,03,00,16,20.20
2017,09,03,00,17,20.10
2017,09,03,00,18,20.10
2017,09,03,00,19,20.10
2017,09,03,00,20,20.10
2017,09,03,00,21,20.10
2017,09,03,00,22,20.00
2017,09,03,00,23,20.00
2017,09,03,00,24,20.00
2017,09,03,00,25,20.00
2017,09,03,00,26,20.00
2017,09,03,00,27,19.90
2017,09,03,00,28,19.90
2017,09,03,00,29,19.90
2017,09,03,00,30,19.90
2017,09,03,00,31,19.90
2017,09,03,00,32,19.90
2017,09,03,00,33,19.90
2017,09,03,00,34,19.90
2017,09,03,00,35,19.90
2017,09,03,00,36,19.90
2017,09,03,00,37,19.90
2017,09,03,00,38,19.90
2017,09,03,00,39,19.90
2017,09,03,00,40,19.90
2017,09,03,00,41,19.90
2017,09,03,00,42,19.90
2017,09,03,00,43,19.90
2017,09,03,00,44,19.90
2017,09,03,00,45,19.90
2017,09,03,00,46,19.90
2017,09,03,00,47,19.90
2017,09,03,00,48,19.90
2017,09,03,00,49,19.90
2017,09,03,00,50,19.90
2017,09,03,00,51,19.90
2017,09,03,00,52,19.90
2017,09,03,00,53,19.90
2017,09,03,00,54,19.90
2017,09,03,00,55,19.90
2017,09,03,00,56,19.90
2017,09,03,00,57,19.90
2017,09,03,00,58,19.90
2017,09,03,00,59,19.80
2017,09,03,01,00,19.80
2017,09,03,01,01,19.80
2017,09,03,01,02,19.80
2017,09,03,01,03,19.80
2017,09,03,01,04,19.80
2017,09,03,01,05,19.80
2017,09,03,01,06,19.80
2017,09,03,01,07,19.70
2017,09,03,01,08,19.70
2017,09,03,01,09,19.70
2017,09,03,01,10,19.70
2017,09,03,01,11,19.70
2017,09,03,01,12,19.70
2017,09,03,01,13,19.70
2017,09,03,01,14,19.60
2017,09,03,01,15,19.60
2017,09,03,01,16,19.60
2017,09,03,01,17,19.60
2017,09,03,01,18,19.60
2017,09,03,01,19,19.60
2017,09,03,01,20,19.60
2017,09,03,01,21,19.60
2017,09,03,01,22,19.50
2017,09,03,01,23,19.50
2017,09,03,01,24,19.50
2017,09,03,01,25,19.50
2017,09,03,01,26,19.50
2017,09,03,01,27,19.40
2017,09,03,01,28,19.40
2017,09,03,01,29,19.40
2017,09,03,01,30,19.40
2017,09,03,01,31,19.40
2017,09,03,01,32,19.40
2017,09,03,01,33,19.40
2017,09,03,01,34,19.30
2017,09,03,01,35,19.30
2017,09,03,01,36,19.30
2017,09,03,01,37,19.30
2017,09,03,01,38,19.30
2017,09,03,01,39,19.30
2017,09,03,01,40,19.30
2017,09,03,01,41,19.20
2017,09,03,01,42,19.20
2017,09,03,01,43,19.20
2017,09,03,01,44,19.20
2017,09,03,01,45,19.20
2017,09,03,01,46,19.10
2017,09,03,01,47,19.10
2017,09,03,01,48,19.10
2017,09,03,01,49,19.10
2017,09,03,01,50,19.10
2017,09,03,01,51,19.00
2017,09,03,01,52,19.00
2017,09,03,01,53,19.00
2017,09,03,01,54,19.00
2017,09,03,01,55,18.90
2017,09,03,01,56,18.90
2017,09,03,01,57,18.90
2017,09,03,01,58,18.90
2017,09,03,01,59,18.90
2017,09,03,02,00,18.90
2017,09,03,02,01,18.80
2017,09,03,02,02,18.80
2017,09,03,02,03,18.80
2017,09,03,02,04,18.80
2017,09,03,02,05,18.80
2017,09,03,02,06,18.80
2017,09,03,02,07,18.80
2017,09,03,02,08,18.80
2017,09,03,02,09,18.80
2017,09,03,02,10,18.80
2017,09,03,02,11,18.80
2017,09,03,02,12,18.80
2017,09,03,02,13,18.80
2017,09,03,02,14,18.80
2017,09,03,02,15,18.80
2017,09,03,02,16,18.80
2017,09,03,02,17,18.80
2017,09,03,02,18,18.80
2017,09,03,02,19,18.70
2017,09,03,02,20,18.70
2017,09,03,02,21,18.70
2017,09,03,02,22,18.70
2017,09,03,02,23,18.70
2017,09,03,02,24,18.70
2017,09,03,02,25,18.70
2017,09,03,02,26,18.70
2017,09,03,02,27,18.60
2017,09,03,02,28,18.60
2017,09,03,02,29,18.60
2017,09,03,02,30,18.60
2017,09,03,02,31,18.60
2017,09,03,02,32,18.60
2017,09,03,02,33,18.50
2017,09,03,02,34,18.50
2017,09,03,02,35,18.50
2017,09,03,02,36,18.50
2017,09,03,02,37,18.50
2017,09,03,02,38,18.50
2017,09,03,02,39,18.50
2017,09,03,02,40,18.50
2017,09,03,02,41,18.40
2017,09,03,02,42,18.40
2017,09,03,02,43,18.40
2017,09,03,02,44,18.40
2017,09,03,02,45,18.40
2017,09,03,02,46,18.40
2017,09,03,02,47,18.40
2017,09,03,02,48,18.40
2017,09,03,02,49,18.40
2017,09,03,02,50,18.40
2017,09,03,02,51,18.40
2017,09,03,02,52,18.40
2017,09,03,02,53,18.30
2017,09,03,02,54,18.30
2017,09,03,02,55,18.30
2017,09,03,02,56,18.30
2017,09,03,02,57,18.30
2017,09,03,02,58,18.30
2017,09,03,02,59,18.30
2017,09,03,03,00,18.30
2017,09,03,03,01,18.30
2017,09,03,03,02,18.20
2017,09,03,03,03,18.20
2017,09,03,03,04,18.20
2017,09,03,03,05,18.20
2017,09,03,03,06,18.20
2017,09,03,03,07,18.20
2017,09,03,03,08,18.20
2017,09,03,03,09,18.20
2017,09,03,03,10,18.20
2017,09,03,03,11,18.20
2017,09,03,03,12,18.20
2017,09,03,03,13,18.20
2017,09,03,03,14,18.20
2017,09,03,03,15,18.20
2017,09,03,03,16,18.20
2017,09,03,03,17,18.20
2017,09,03,03,18,18.10
2017,09,03,03,19,18.10
2017,09,03,03,20,18.10
2017,09,03,03,21,18.10
2017,09,03,03,22,18.10
2017,09,03,03,23,18.10
2017,09,03,03,24,18.00
2017,09,03,03,25,18.00
2017,09,03,03,26,18.00
2017,09,03,03,27,18.00
2017,09,03,03,28,18.00
2017,09,03,03,29,18.00
2017,09,03,03,30,18.00
2017,09,03,03,31,17.90
2017,09,03,03,32,17.90
2017,09,03,03,33,17.90
2017,09,03,03,34,17.90
2017,09,03,03,35,17.90
2017,09,03,03,36,17.90
2017,09,03,03,37,17.90
2017,09,03,03,38,17.90
2017,09,03,03,39,17.90
2017,09,03,03,40,17.90
2017,09,03,03,41,17.80
2017,09,03,03,42,17.80
2017,09,03,03,43,17.80
2017,09,03,03,44,17.80
2017,09,03,03,45,17.80
2017,09,03,03,46,17.80
2017,09,03,03,47,17.80
2017,09,03,03,48,17.80
2017,09,03,03,49,17.80
2017,09,03,03,50,17.80
2017,09,03,03,51,17.80
2017,09,03,03,52,17.70
2017,09,03,03,53,17.70
2017,09,03,03,54,17.70
2017,09,03,03,55,17.70
2017,09,03,03,56,17.70
2017,09,03,03,57,17.70
2017,09,03,03,58,17.60
2017,09,03,03,59,17.60
2017,09,03,04,00,17.60
2017,09,03,04,01,17.60
2017,09,03,04,02,17.60
2017,09,03,04,03,17.60
2017,09,03,04,04,17.50
2017,09,03,04,05,17.50
2017,09,03,04,06,17.50
2017,09,03,04,07,17.50
2017,09,03,04,08,17.40
2017,09,03,04,09,17.40
2017,09,03,04,10,17.40
2017,09,03,04,11,17.40
2017,09,03,04,12,17.40
2017,09,03,04,13,17.30
2017,09,03,04,14,17.30
2017,09,03,04,15,17.30
2017,09,03,04,16,17.30
2017,09,03,04,17,17.30
2017,09,03,04,18,17.30
2017,09,03,04,19,17.30
2017,09,03,04,20,17.30
2017,09,03,04,21,17.30
2017,09,03,04,22,17.30
2017,09,03,04,23,17.30
2017,09,03,04,24,17.30
2017,09,03,04,25,17.30
2017,09,03,04,26,17.20
2017,09,03,04,27,17.20
2017,09,03,04,28,17.20
2017,09,03,04,29,17.20
2017,09,03,04,30,17.20
2017,09,03,04,31,17.20
2017,09,03,04,32,17.20
2017,09,03,04,33,17.10
2017,09,03,04,34,17.10
2017,09,03,04,35,17.10
2017,09,03,04,36,17.10
2017,09,03,04,37,17.10
2017,09,03,04,38,17.10
2017,09,03,04,39,17.10
2017,09,03,04,40,17.10
2017,09,03,04,41,17.10
2017,09,03,04,42,17.10
2017,09,03,04,43,17.10
2017,09,03,04,44,17.10
2017,09,03,04,45,17.10
2017,09,03,04,46,17.10
2017,09,03,04,47,17.00
2017,09,03,04,48,17.00
2017,09,03,04,49,17.00
2017,09,03,04,50,17.00
2017,09,03,04,51,16.90
2017,09,03,04,52,16.90
2017,09,03,04,53,16.90
2017,09,03,04,54,16.90
2017,09,03,04,55,16.90
2017,09,03,04,56,16.90
2017,09,03,04,57,16.90
2017,09,03,04,58,16.90
2017,09,03,04,59,16.80
2017,09,03,05,00,16.80
2017,09,03,05,01,16.80
2017,09,03,05,02,16.80
2017,09,03,05,03,16.80
2017,09,03,05,04,16.80
2017,09,03,05,05,16.80
2017,09,03,05,06,16.80
2017,09,03,05,07,16.80
2017,09,03,05,08,16.70
2017,09,03,05,09,16.70
2017,09,03,05,10,16.70
2017,09,03,05,11,16.80
2017,09,03,05,12,16.80
2017,09,03,05,13,16.80
2017,09,03,05,14,16.80
2017,09,03,05,15,16.80
2017,09,03,05,16,16.80
2017,09,03,05,17,16.80
2017,09,03,05,18,16.80
2017,09,03,05,19,16.70
2017,09,03,05,20,16.80
2017,09,03,05,21,16.80
2017,09,03,05,22,16.80
2017,09,03,05,23,16.80
2017,09,03,05,24,16.80
2017,09,03,05,25,16.80
2017,09,03,05,26,16.80
2017,09,03,05,27,16.80
2017,09,03,05,28,16.80
2017,09,03,05,29,16.70
2017,09,03,05,30,16.70
2017,09,03,05,31,16.70
2017,09,03,05,32,16.70
2017,09,03,05,33,16.70
2017,09,03,05,34,16.70
2017,09,03,05,35,16.70
2017,09,03,05,36,16.70
2017,09,03,05,37,16.70
2017,09,03,05,38,16.70
2017,09,03,05,39,16.60
2017,09,03,05,40,16.60
2017,09,03,05,41,16.60
2017,09,03,05,42,16.60
2017,09,03,05,43,16.60
2017,09,03,05,44,16.60
2017,09,03,05,45,16.60
2017,09,03,05,46,16.50
2017,09,03,05,47,16.50
2017,09,03,05,48,16.50
2017,09,03,05,49,16.40
2017,09,03,05,50,16.40
2017,09,03,05,51,16.40
2017,09,03,05,52,16.40
2017,09,03,05,53,16.30
2017,09,03,05,54,16.30
2017,09,03,05,55,16.30
2017,09,03,05,56,16.30
2017,09,03,05,57,16.30
2017,09,03,05,58,16.30
2017,09,03,05,59,16.30
2017,09,03,06,00,16.30
2017,09,03,06,01,16.20
2017,09,03,06,02,16.20
2017,09,03,06,03,16.20
2017,09,03,06,04,16.20
2017,09,03,06,05,16.20
2017,09,03,06,06,16.20
2017,09,03,06,07,16.20
2017,09,03,06,08,16.20
2017,09,03,06,09,16.20
2017,09,03,06,10,16.20
2017,09,03,06,11,16.20
2017,09,03,06,12,16.20
2017,09,03,06,13,16.20
2017,09,03,06,14,16.20
2017,09,03,06,15,16.20
2017,09,03,06,16,16.20
2017,09,03,06,17,16.20
2017,09,03,06,18,16.20
2017,09,03,06,19,16.20
2017,09,03,06,20,16.20
2017,09,03,06,21,16.20
2017,09,03,06,22,16.10
2017,09,03,06,23,16.10
2017,09,03,06,24,16.10
2017,09,03,06,25,16.10
2017,09,03,06,26,16.10
2017,09,03,06,27,16.20
2017,09,03,06,28,16.20
2017,09,03,06,29,16.20
2017,09,03,06,30,16.20
2017,09,03,06,31,16.20
2017,09,03,06,32,16.10
2017,09,03,06,33,16.10
2017,09,03,06,34,16.10
2017,09,03,06,35,16.10
2017,09,03,06,36,16.10
2017,09,03,06,37,16.10
2017,09,03,06,38,16.10
2017,09,03,06,39,16.10
2017,09,03,06,40,16.10
2017,09,03,06,41,16.10
2017,09,03,06,42,16.10
2017,09,03,06,43,16.00
2017,09,03,06,44,16.00
2017,09,03,06,45,16.00
2017,09,03,06,46,16.00
2017,09,03,06,47,16.00
2017,09,03,06,48,16.00
2017,09,03,06,49,16.00
2017,09,03,06,50,16.00
2017,09,03,06,51,16.00
2017,09,03,06,52,16.00
2017,09,03,06,53,16.00
2017,09,03,06,54,16.00
2017,09,03,06,55,16.00
2017,09,03,06,56,16.00
2017,09,03,06,57,16.00
2017,09,03,06,58,15.90
2017,09,03,06,59,15.90
2017,09,03,07,00,15.90
2017,09,03,07,01,15.90
2017,09,03,07,02,15.90
2017,09,03,07,03,15.90
2017,09,03,07,04,15.90
2017,09,03,07,05,15.80
2017,09,03,07,06,15.80
2017,09,03,07,07,15.80
2017,09,03,07,08,15.80
2017,09,03,07,09,15.80
2017,09,03,07,10,15.80
2017,09,03,07,11,15.80
2017,09,03,07,12,15.80
2017,09,03,07,13,15.80
2017,09,03,07,14,15.80
2017,09,03,07,15,15.80
2017,09,03,07,16,15.80
2017,09,03,07,17,15.80
2017,09,03,07,18,15.80
2017,09,03,07,19,15.80
2017,09,03,07,20,15.80
2017,09,03,07,21,15.80
2017,09,03,07,22,15.80
2017,09,03,07,23,15.80
2017,09,03,07,24,15.80
2017,09,03,07,25,15.80
2017,09,03,07,26,15.80
2017,09,03,07,27,15.80
2017,09,03,07,28,15.80
2017,09,03,07,29,15.80
2017,09,03,07,30,15.80
2017,09,03,07,31,15.80
2017,09,03,07,32,15.80
2017,09,03,07,33,15.80
2017,09,03,07,34,15.80
2017,09,03,07,35,15.80
2017,09,03,07,36,15.80
2017,09,03,07,37,15.80
2017,09,03,07,38,15.80
2017,09,03,07,39,15.80
2017,09,03,07,40,15.80
2017,09,03,07,41,15.80
2017,09,03,07,42,15.80
2017,09,03,07,43,15.80
2017,09,03,07,44,15.80
2017,09,03,07,45,15.90
2017,09,03,07,46,15.90
2017,09,03,07,47,15.90
2017,09,03,07,48,15.90
2017,09,03,07,49,15.90
2017,09,03,07,50,16.00
2017,09,03,07,51,16.00
2017,09,03,07,52,16.00
2017,09,03,07,53,16.10
2017,09,03,07,54,16.10
2017,09,03,07,55,16.10
2017,09,03,07,56,16.20
2017,09,03,07,57,16.20
2017,09,03,07,58,16.20
2017,09,03,07,59,16.30
2017,09,03,08,00,16.30
2017,09,03,08,01,16.40
2017,09,03,08,02,16.40
2017,09,03,08,03,16.40
2017,09,03,08,04,16.50
2017,09,03,08,05,16.60
2017,09,03,08,06,16.60
2017,09,03,08,07,16.70
2017,09,03,08,08,16.70
2017,09,03,08,09,16.80
2017,09,03,08,10,16.90
2017,09,03,08,11,17.00
2017,09,03,08,12,17.10
2017,09,03,08,13,17.10
2017,09,03,08,14,17.20
2017,09,03,08,15,17.30
2017,09,03,08,16,17.40
2017,09,03,08,17,17.40
2017,09,03,08,18,17.50
2017,09,03,08,19,17.60
2017,09,03,08,20,17.60
2017,09,03,08,21,17.70
2017,09,03,08,22,17.70
2017,09,03,08,23,17.80
2017,09,03,08,24,17.90
2017,09,03,08,25,18.00
2017,09,03,08,26,18.00
2017,09,03,08,27,18.10
2017,09,03,08,28,18.10
2017,09,03,08,29,18.20
2017,09,03,08,30,18.20
2017,09,03,08,31,18.30
2017,09,03,08,32,18.30
2017,09,03,08,33,18.40
2017,09,03,08,34,18.40
2017,09,03,08,35,18.50
2017,09,03,08,36,18.50
2017,09,03,08,37,18.60
2017,09,03,08,38,18.60
2017,09,03,08,39,18.70
2017,09,03,08,40,18.70
2017,09,03,08,41,18.80
2017,09,03,08,42,18.80
2017,09,03,08,43,18.80
2017,09,03,08,44,18.90
2017,09,03,08,45,18.90
2017,09,03,08,46,19.00
2017,09,03,08,47,19.00
2017,09,03,08,48,19.10
2017,09,03,08,49,19.10
2017,09,03,08,50,19.10
2017,09,03,08,51,19.20
2017,09,03,08,52,19.20
2017,09,03,08,53,19.20
2017,09,03,08,54,19.30
2017,09,03,08,55,19.30
2017,09,03,08,56,19.30
2017,09,03,08,57,19.30
2017,09,03,08,58,19.40
2017,09,03,08,59,19.40
2017,09,03,09,00,19.40
2017,09,03,09,01,19.50
2017,09,03,09,02,19.50
2017,09,03,09,03,19.60
2017,09,03,09,04,19.60
2017,09,03,09,05,19.60
2017,09,03,09,06,19.60
2017,09,03,09,07,19.60
2017,09,03,09,08,19.70
2017,09,03,09,09,19.80
2017,09,03,09,10,19.80
2017,09,03,09,11,19.90
2017,09,03,09,12,19.90
2017,09,03,09,13,19.90
2017,09,03,09,14,19.90
2017,09,03,09,15,20.00
2017,09,03,09,16,20.00
2017,09,03,09,17,20.10
2017,09,03,09,18,20.10
2017,09,03,09,19,20.10
2017,09,03,09,20,20.20
2017,09,03,09,21,20.20
2017,09,03,09,22,20.20
2017,09,03,09,23,20.30
2017,09,03,09,24,20.30
2017,09,03,09,25,20.30
2017,09,03,09,26,20.40
2017,09,03,09,27,20.50
2017,09,03,09,28,20.50
2017,09,03,09,29,20.60
2017,09,03,09,30,20.60
2017,09,03,09,31,20.70
2017,09,03,09,32,20.80
2017,09,03,09,33,20.90
2017,09,03,09,34,20.90
2017,09,03,09,35,21.00
2017,09,03,09,36,21.00
2017,09,03,09,37,21.10
2017,09,03,09,38,21.20
2017,09,03,09,39,21.20
2017,09,03,09,40,21.30
2017,09,03,09,41,21.30
2017,09,03,09,42,21.40
2017,09,03,09,43,21.50
2017,09,03,09,44,21.60
2017,09,03,09,45,21.60
2017,09,03,09,46,21.70
2017,09,03,09,47,21.80
2017,09,03,09,48,21.80
2017,09,03,09,49,21.80
2017,09,03,09,50,21.90
2017,09,03,09,51,21.90
2017,09,03,09,52,22.00
2017,09,03,09,53,22.10
2017,09,03,09,54,22.10
2017,09,03,09,55,22.20
2017,09,03,09,56,22.30
2017,09,03,09,57,22.30
2017,09,03,09,58,22.40
2017,09,03,09,59,22.50
2017,09,03,10,00,22.60
2017,09,03,10,01,22.60
2017,09,03,10,02,22.60
2017,09,03,10,03,22.60
2017,09,03,10,04,22.60
2017,09,03,10,05,22.60
2017,09,03,10,06,22.70
2017,09,03,10,07,22.60
2017,09,03,10,08,22.70
2017,09,03,10,09,22.70
2017,09,03,10,10,22.70
2017,09,03,10,11,22.70
2017,09,03,10,12,22.70
2017,09,03,10,13,22.70
2017,09,03,10,14,22.70
2017,09,03,10,15,22.70
2017,09,03,10,16,22.80
2017,09,03,10,17,22.90
2017,09,03,10,18,22.90
2017,09,03,10,19,23.00
2017,09,03,10,20,23.10
2017,09,03,10,21,23.10
2017,09,03,10,22,23.20
2017,09,03,10,23,23.30
2017,09,03,10,24,23.30
2017,09,03,10,25,23.40
2017,09,03,10,26,23.50
2017,09,03,10,27,23.70
2017,09,03,10,28,23.80
2017,09,03,10,29,23.90
2017,09,03,10,30,23.90
2017,09,03,10,31,24.00
2017,09,03,10,32,24.00
2017,09,03,10,33,24.00
2017,09,03,10,34,24.00
2017,09,03,10,35,24.00
2017,09,03,10,36,24.00
2017,09,03,10,37,24.10
2017,09,03,10,38,24.10
2017,09,03,10,39,24.10
2017,09,03,10,40,24.10
2017,09,03,10,41,24.00
2017,09,03,10,42,24.00
2017,09,03,10,43,24.00
2017,09,03,10,44,24.00
2017,09,03,10,45,24.00
2017,09,03,10,46,24.00
2017,09,03,10,47,24.00
2017,09,03,10,48,24.10
2017,09,03,10,49,24.10
2017,09,03,10,50,24.10
2017,09,03,10,51,24.20
2017,09,03,10,52,24.20
2017,09,03,10,53,24.20
2017,09,03,10,54,24.20
2017,09,03,10,55,24.20
2017,09,03,10,56,24.60
2017,09,03,10,57,24.70
2017,09,03,10,58,24.80
2017,09,03,10,59,24.90
2017,09,03,11,00,24.90
2017,09,03,11,01,25.00
2017,09,03,11,02,25.00
2017,09,03,11,03,25.10
2017,09,03,11,04,25.10
2017,09,03,11,05,25.20
2017,09,03,11,06,25.20
2017,09,03,11,07,25.20
2017,09,03,11,08,25.20
2017,09,03,11,09,25.20
2017,09,03,11,10,25.20
2017,09,03,11,11,25.30
2017,09,03,11,12,25.40
2017,09,03,11,13,25.40
2017,09,03,11,14,25.40
2017,09,03,11,15,25.50
2017,09,03,11,16,25.60
2017,09,03,11,17,25.60
2017,09,03,11,18,25.70
2017,09,03,11,19,25.80
2017,09,03,11,20,25.90
2017,09,03,11,21,25.90
2017,09,03,11,22,25.80
2017,09,03,11,23,25.90
2017,09,03,11,24,26.00
2017,09,03,11,25,26.00
2017,09,03,11,26,26.10
2017,09,03,11,27,26.20
2017,09,03,11,28,26.40
2017,09,03,11,29,26.50
2017,09,03,11,30,26.60
2017,09,03,11,31,26.60
2017,09,03,11,32,26.70
2017,09,03,11,33,26.70
2017,09,03,11,34,26.70
2017,09,03,11,35,26.70
2017,09,03,11,36,26.70
2017,09,03,11,37,26.80
2017,09,03,11,38,26.80
2017,09,03,11,39,26.80
2017,09,03,11,40,26.80
2017,09,03,11,41,26.80
2017,09,03,11,42,26.90
2017,09,03,11,43,26.90
2017,09,03,11,44,26.90
2017,09,03,11,45,26.90
2017,09,03,11,46,27.00
2017,09,03,11,47,27.10
2017,09,03,11,48,27.10
2017,09,03,11,49,27.20
2017,09,03,11,50,27.20
2017,09,03,11,51,27.30
2017,09,03,11,52,27.30
2017,09,03,11,53,27.30
2017,09,03,11,54,27.40
2017,09,03,11,55,27.50
2017,09,03,11,56,27.60
2017,09,03,11,57,27.70
2017,09,03,11,58,27.80
2017,09,03,11,59,27.80
2017,09,03,12,00,27.90
2017,09,03,12,01,28.00
2017,09,03,12,02,28.00
2017,09,03,12,03,28.10
2017,09,03,12,04,28.10
2017,09,03,12,05,28.10
2017,09,03,12,06,28.00
2017,09,03,12,07,28.00
2017,09,03,12,08,27.90
2017,09,03,12,09,27.90
2017,09,03,12,10,27.90
2017,09,03,12,11,27.90
2017,09,03,12,12,27.90
2017,09,03,12,13,27.90
2017,09,03,12,14,27.90
2017,09,03,12,15,27.90
2017,09,03,12,16,27.90
2017,09,03,12,17,27.90
2017,09,03,12,18,28.00
2017,09,03,12,19,28.00
2017,09,03,12,20,28.00
2017,09,03,12,21,28.10
2017,09,03,12,22,28.10
2017,09,03,12,23,28.20
2017,09,03,12,24,28.20
2017,09,03,12,25,28.20
2017,09,03,12,26,28.30
2017,09,03,12,27,28.30
2017,09,03,12,28,28.40
2017,09,03,12,29,28.50
2017,09,03,12,30,28.50
2017,09,03,12,31,28.60
2017,09,03,12,32,28.60
2017,09,03,12,33,28.60
2017,09,03,12,34,28.70
2017,09,03,12,35,28.80
2017,09,03,12,36,28.90
2017,09,03,12,37,29.00
2017,09,03,12,38,29.10
2017,09,03,12,39,29.10
2017,09,03,12,40,29.20
2017,09,03,12,41,29.20
2017,09,03,12,42,29.20
2017,09,03,12,43,29.10
2017,09,03,12,44,29.20
2017,09,03,12,45,29.20
2017,09,03,12,46,29.20
2017,09,03,12,47,29.20
2017,09,03,12,48,29.20
2017,09,03,12,49,29.20
2017,09,03,12,50,29.20
2017,09,03,12,51,29.30
2017,09,03,12,52,29.30
2017,09,03,12,53,29.30
2017,09,03,12,54,29.30
2017,09,03,12,55,29.40
2017,09,03,12,56,29.40
2017,09,03,12,57,29.40
2017,09,03,12,58,29.40
2017,09,03,12,59,29.40
2017,09,03,13,00,29.50
2017,09,03,13,01,29.60
2017,09,03,13,02,29.70
2017,09,03,13,03,29.80
2017,09,03,13,04,29.80
2017,09,03,13,05,29.90
2017,09,03,13,06,29.90
2017,09,03,13,07,29.90
2017,09,03,13,08,29.90
2017,09,03,13,09,30.00
2017,09,03,13,10,30.10
2017,09,03,13,11,30.20
2017,09,03,13,12,30.20
2017,09,03,13,13,30.20
2017,09,03,13,14,30.20
2017,09,03,13,15,30.20
2017,09,03,13,16,30.30
2017,09,03,13,17,30.40
2017,09,03,13,18,30.40
2017,09,03,13,19,30.50
2017,09,03,13,20,30.50
2017,09,03,13,21,30.60
2017,09,03,13,22,30.60
2017,09,03,13,23,30.70
2017,09,03,13,24,30.70
2017,09,03,13,25,30.70
2017,09,03,13,26,30.70
2017,09,03,13,27,30.70
2017,09,03,13,28,30.50
2017,09,03,13,29,30.50
2017,09,03,13,30,30.40
2017,09,03,13,31,30.40
2017,09,03,13,32,30.40
2017,09,03,13,33,30.50
2017,09,03,13,34,30.50
2017,09,03,13,35,30.60
2017,09,03,13,36,30.70
2017,09,03,13,37,30.70
2017,09,03,13,38,30.70
2017,09,03,13,39,30.80
2017,09,03,13,40,30.80
2017,09,03,13,41,30.90
2017,09,03,13,42,31.00
2017,09,03,13,43,31.00
2017,09,03,13,44,31.10
2017,09,03,13,45,31.20
2017,09,03,13,46,31.20
2017,09,03,13,47,31.30
2017,09,03,13,48,31.30
2017,09,03,13,49,31.30
2017,09,03,13,50,31.40
2017,09,03,13,51,31.40
2017,09,03,13,52,31.40
2017,09,03,13,53,31.40
2017,09,03,13,54,31.40
2017,09,03,13,55,31.40
2017,09,03,13,56,31.40
2017,09,03,13,57,31.50
2017,09,03,13,58,31.50
2017,09,03,13,59,31.50
2017,09,03,14,00,31.50
2017,09,03,14,01,31.60
2017,09,03,14,02,31.60
2017,09,03,14,03,31.70
2017,09,03,14,04,31.80
2017,09,03,14,05,31.80
2017,09,03,14,06,31.90
2017,09,03,14,07,31.90
2017,09,03,14,08,31.90
2017,09,03,14,09,31.90
2017,09,03,14,10,31.90
2017,09,03,14,11,31.90
2017,09,03,14,12,31.90
2017,09,03,14,13,31.90
2017,09,03,14,14,31.90
2017,09,03,14,15,32.00
2017,09,03,14,16,32.10
2017,09,03,14,17,32.10
2017,09,03,14,18,32.10
2017,09,03,14,19,32.10
2017,09,03,14,20,32.10
2017,09,03,14,21,32.10
2017,09,03,14,22,32.10
2017,09,03,14,23,32.10
2017,09,03,14,24,32.40
2017,09,03,14,25,32.80
2017,09,03,14,26,32.80
2017,09,03,14,27,32.80
2017,09,03,14,28,32.70
2017,09,03,14,29,32.70
2017,09,03,14,30,32.70
2017,09,03,14,31,32.70
2017,09,03,14,32,32.80
2017,09,03,14,33,32.80
2017,09,03,14,34,32.80
2017,09,03,14,35,32.90
2017,09,03,14,36,32.90
2017,09,03,14,37,33.00
2017,09,03,14,38,33.10
2017,09,03,14,39,33.00
2017,09,03,14,40,33.00
2017,09,03,14,41,32.90
2017,09,03,14,42,33.00
2017,09,03,14,43,33.00
2017,09,03,14,44,33.00
2017,09,03,14,45,33.00
2017,09,03,14,46,33.00
2017,09,03,14,47,32.90
2017,09,03,14,48,32.90
2017,09,03,14,49,32.80
2017,09,03,14,50,32.80
2017,09,03,14,51,32.90
2017,09,03,14,52,33.00
2017,09,03,14,53,33.00
2017,09,03,14,54,33.00
2017,09,03,14,55,32.90
2017,09,03,14,56,33.00
2017,09,03,14,57,33.00
2017,09,03,14,58,33.00
2017,09,03,14,59,33.00
2017,09,03,15,00,33.00
2017,09,03,15,01,33.10
2017,09,03,15,02,33.10
2017,09,03,15,03,33.10
2017,09,03,15,04,33.10
2017,09,03,15,05,33.10
2017,09,03,15,06,33.10
2017,09,03,15,07,33.10
2017,09,03,15,08,33.10
2017,09,03,15,09,33.10
2017,09,03,15,10,33.20
2017,09,03,15,11,33.20
2017,09,03,15,12,33.20
2017,09,03,15,13,33.20
2017,09,03,15,14,33.20
2017,09,03,15,15,33.20
2017,09,03,15,16,33.20
2017,09,03,15,17,33.10
2017,09,03,15,18,33.10
2017,09,03,15,19,33.10
2017,09,03,15,20,32.90
2017,09,03,15,21,32.80
2017,09,03,15,22,32.80
2017,09,03,15,23,32.70
2017,09,03,15,24,32.70
2017,09,03,15,25,32.70
2017,09,03,15,26,32.60
2017,09,03,15,27,32.60
2017,09,03,15,28,32.60
2017,09,03,15,29,32.60
2017,09,03,15,30,32.60
2017,09,03,15,31,32.70
2017,09,03,15,32,32.70
2017,09,03,15,33,32.80
2017,09,03,15,34,32.80
2017,09,03,15,35,32.80
2017,09,03,15,36,32.80
2017,09,03,15,37,32.80
2017,09,03,15,38,32.80
2017,09,03,15,39,32.80
2017,09,03,15,40,32.80
2017,09,03,15,41,32.80
2017,09,03,15,42,32.90
2017,09,03,15,43,32.90
2017,09,03,15,44,33.00
2017,09,03,15,45,33.00
2017,09,03,15,46,33.00
2017,09,03,15,47,32.90
2017,09,03,15,48,32.90
2017,09,03,15,49,32.80
2017,09,03,15,50,32.80
2017,09,03,15,51,32.80
2017,09,03,15,52,32.90
2017,09,03,15,53,32.90
2017,09,03,15,54,32.90
2017,09,03,15,55,33.00
2017,09,03,15,56,33.00
2017,09,03,15,57,33.10
2017,09,03,15,58,33.10
2017,09,03,15,59,33.10
2017,09,03,16,00,33.10
2017,09,03,16,01,33.10
2017,09,03,16,02,33.20
2017,09,03,16,03,33.20
2017,09,03,16,04,33.20
2017,09,03,16,05,33.20
2017,09,03,16,06,33.20
2017,09,03,16,07,33.20
2017,09,03,16,08,33.20
2017,09,03,16,09,33.20
2017,09,03,16,10,33.20
2017,09,03,16,11,33.20
2017,09,03,16,12,33.20
2017,09,03,16,13,33.10
2017,09,03,16,14,33.10
2017,09,03,16,15,33.10
2017,09,03,16,16,33.20
2017,09,03,16,17,33.20
2017,09,03,16,18,33.20
2017,09,03,16,19,33.20
2017,09,03,16,20,33.10
2017,09,03,16,21,33.00
2017,09,03,16,22,32.90
2017,09,03,16,23,32.90
2017,09,03,16,24,33.00
2017,09,03,16,25,33.00
2017,09,03,16,26,33.10
2017,09,03,16,27,33.10
2017,09,03,16,28,33.10
2017,09,03,16,29,33.10
2017,09,03,16,30,33.10
2017,09,03,16,31,33.10
2017,09,03,16,32,33.00
2017,09,03,16,33,33.00
2017,09,03,16,34,32.90
2017,09,03,16,35,32.80
2017,09,03,16,36,32.80
2017,09,03,16,37,32.70
2017,09,03,16,38,32.70
2017,09,03,16,39,32.70
2017,09,03,16,40,32.70
2017,09,03,16,41,32.90
2017,09,03,16,42,32.90
2017,09,03,16,43,32.90
2017,09,03,16,44,32.80
2017,09,03,16,45,32.80
2017,09,03,16,46,32.80
2017,09,03,16,47,32.80
2017,09,03,16,48,32.90
2017,09,03,16,49,32.90
2017,09,03,16,50,33.00
2017,09,03,16,51,33.00
2017,09,03,16,52,33.00
2017,09,03,16,53,33.00
2017,09,03,16,54,32.90
2017,09,03,16,55,32.90
2017,09,03,16,56,32.90
2017,09,03,16,57,32.90
2017,09,03,16,58,32.90
2017,09,03,16,59,33.00
2017,09,03,17,00,33.00
2017,09,03,17,01,33.00
2017,09,03,17,02,32.90
2017,09,03,17,03,32.90
2017,09,03,17,04,32.90
2017,09,03,17,05,33.00
2017,09,03,17,06,33.00
2017,09,03,17,07,33.10
2017,09,03,17,08,33.20
2017,09,03,17,09,33.20
2017,09,03,17,10,33.10
2017,09,03,17,11,33.10
2017,09,03,17,12,33.10
2017,09,03,17,13,33.20
2017,09,03,17,14,33.20
2017,09,03,17,15,33.20
2017,09,03,17,16,33.20
2017,09,03,17,17,33.20
2017,09,03,17,18,33.20
2017,09,03,17,19,33.20